Minatare, NE

9:17 PM MDT on August 25, 2016 (GMT -0600)
Heilig

Weather History for KBFF - October, 2011

Change the Weather History Date:

Saturday, October 22, 2011

  Actual Average Record
Temperature  
Mean Temperature 54 °F 46 °F  
Max Temperature 70 °F 62 °F 84 °F (1915)
Min Temperature 38 °F 31 °F 13 °F (1895)
Degree Days  
Heating Degree Days 11 19  
Month to date heating degree days 246 328  
Since 1 July heating degree days 356 507  
Cooling Degree Days 0 0  
Month to date cooling degree days 10 0  
Year to date cooling degree days 932 723  
Growing Degree Days 4 (Base 50)    
Moisture  
Dew Point 37 °F    
Average Humidity 58    
Maximum Humidity 92    
Minimum Humidity 23    
Precipitation  
Precipitation T in 0.04 in 1.14 in (2000)
Month to date precipitation 1.47 0.87  
Year to date precipitation 18.14 14.35  
Snow  
Snow 0.00 in 0.10 in 6.00 in (1906)
Month to date snowfall 0.0 1.6  
Since 1 July snowfall 0.0 2.1  
Snow Depth 0.00 in    
Sea Level Pressure  
Sea Level Pressure 30.07 in    
Wind  
Wind Speed 6 mph (North)    
Max Wind Speed 22 mph    
Max Gust Speed 28 mph    
Visibility 10 miles    
Events      
T = Trace of Precipitation, MM = Missing Value Source: NWS Daily Summary

Daily Weather History Graph

Daily Weather History Graph

Search for Another Location

Airport or City:

Trip Planner

Search our weather history database for the weather conditions in past years. The results will help you decide how hot, cold, wet, or windy it might be!

Date:

Astronomy

Oct. 22, 2011 Rise Set
Actual Time 7:14 AM MDT 6:02 PM MDT
Civil Twilight 6:46 AM MDT 6:30 PM MDT
Nautical Twilight 6:13 AM MDT 7:03 PM MDT
Astronomical Twilight 5:41 AM MDT 7:35 PM MDT
Moon 2:10 AM MDT (10/22) 3:25 PM MDT (10/22)
Length of Visible Light 11h 44m
Length of Day
10h 47m
Waning Crescent, 23% of the Moon is Illuminated
Oct 22
Waning Crescent
Oct 26
New
Nov 2
First Quarter
Nov 10
Full
Nov 18
Last Quarter

Hourly Weather History & Observations

Time (MDT) Temp. Windchill Dew Point Humidity Pressure Visibility Wind Dir Wind Speed Gust Speed Precip Events Conditions
12:53 AM 48.9 °F - 39.0 °F 69% 30.10 in 10.0 mi North 5.8 mph - 0.00 in   Overcast
1:53 AM 46.9 °F - 42.1 °F 83% 30.12 in 10.0 mi ENE 5.8 mph - 0.00 in   Overcast
2:53 AM 48.0 °F - 42.1 °F 80% 30.10 in 10.0 mi East 4.6 mph - 0.00 in   Overcast
3:53 AM 46.0 °F - 42.1 °F 86% 30.08 in 10.0 mi Calm Calm - N/A   Overcast
4:53 AM 45.0 °F 42.6 °F 41.0 °F 86% 30.07 in 10.0 mi ESE 4.6 mph - N/A   Mostly Cloudy
5:53 AM 44.1 °F 41.5 °F 41.0 °F 89% 30.08 in 10.0 mi ESE 4.6 mph - N/A   Mostly Cloudy
6:53 AM 43.0 °F 41.3 °F 39.9 °F 89% 30.09 in 10.0 mi East 3.5 mph - N/A   Clear
7:53 AM 39.9 °F - 37.0 °F 89% 30.12 in 10.0 mi Calm Calm - N/A   Clear
8:53 AM 46.9 °F - 41.0 °F 80% 30.10 in 10.0 mi NNW 3.5 mph - N/A   Clear
9:53 AM 52.0 °F - 43.0 °F 71% 30.10 in 10.0 mi NW 5.8 mph - N/A   Clear
10:53 AM 57.0 °F - 42.1 °F 57% 30.09 in 10.0 mi NW 6.9 mph - N/A   Clear
11:53 AM 62.1 °F - 41.0 °F 46% 30.07 in 10.0 mi WNW 12.7 mph - N/A   Clear
12:53 PM 64.9 °F - 39.0 °F 39% 30.04 in 10.0 mi West 11.5 mph - N/A   Clear
1:53 PM 68.0 °F - 35.1 °F 30% 30.01 in 10.0 mi WNW 16.1 mph 23.0 mph N/A   Partly Cloudy
2:53 PM 69.1 °F - 30.9 °F 24% 30.00 in 10.0 mi WNW 19.6 mph 26.5 mph N/A   Clear
3:53 PM 66.9 °F - 32.0 °F 27% 30.01 in 10.0 mi NW 17.3 mph 21.9 mph N/A   Clear
4:53 PM 64.9 °F - 36.0 °F 34% 30.03 in 10.0 mi NNW 9.2 mph - N/A   Clear
5:53 PM 61.0 °F - 34.0 °F 36% 30.04 in 10.0 mi North 6.9 mph - N/A   Clear
6:53 PM 51.1 °F - 34.0 °F 52% 30.08 in 10.0 mi North 5.8 mph - N/A   Clear
7:53 PM 50.0 °F - 34.0 °F 54% 30.09 in 10.0 mi Calm Calm - N/A   Clear
8:53 PM 43.0 °F 41.3 °F 34.0 °F 71% 30.09 in 10.0 mi SE 3.5 mph - N/A   Clear
9:53 PM 41.0 °F 39.0 °F 33.1 °F 73% 30.07 in 10.0 mi ESE 3.5 mph - N/A   Clear
10:53 PM 42.1 °F - 33.1 °F 70% 30.04 in 10.0 mi Calm Calm - N/A   Clear
11:53 PM 39.0 °F 36.8 °F 33.1 °F 79% 30.02 in 10.0 mi ESE 3.5 mph - N/A   Clear